Dades meteomassalio
Diari Summary for Octubre 5, 2017 Units:  Metric    English   Both
« Previous Day
Next Day »
Diari Semanal Mensual Anual Personalitzat
  Maxima: Minima: Mijana:
Temperatura: -17.8 °C -12.6 °C -7.6 °C
Rosada: -17.8 °C -14 °C -11.5 °C
Humitat: Humidity % 35 % 67 %
Velocitat del vent: 0 km/h 0 km/h 9.8 km/h
Racha vent: 0 km/h - -
Vent:- - WSW
Pressio: 0 hPa 34533.8 hPa -
Pluja: 0 mm    
Historical Graphs
 
 
Tabular Data for Octubre 5, 2017
Time Temperature Dew Point Pressure Wind Wind Speed Wind Gust Humidity Rainfall Rate (Hourly) solar Conditions
-17.8 °C -17.8 °C 0 hPa Calm     Humidity % 0 mm SolarRadiationWatts/m^2 W/m2 Conditions
00:01 -9.8 °C -11.2 °C 34716.7 hPa Calm     84 % 0 mm 0.0 W/m2 CLR
00:06 -10.1 °C -11.6 °C 34716.7 hPa Calm     84 % 0 mm 0.0 W/m2 CLR
00:11 -10.1 °C -11.6 °C 34716.7 hPa Calm     84 % 0 mm 0.0 W/m2 CLR
00:16 -10.1 °C -11.6 °C 34716.7 hPa Calm     84 % 0 mm 0.0 W/m2 CLR
00:21 -10.1 °C -11.6 °C 34716.7 hPa Calm     84 % 0 mm 0.0 W/m2 CLR
00:26 -10.1 °C -11.6 °C 34716.7 hPa Calm     84 % 0 mm 0.0 W/m2 CLR
00:31 -10.4 °C -11.9 °C 34703.1 hPa Calm     83 % 0 mm 0.0 W/m2 CLR
00:36 -10.4 °C -12.1 °C 34703.1 hPa Calm     82 % 0 mm 0.0 W/m2 CLR
00:41 -10.4 °C -11.8 °C 34703.1 hPa Calm     84 % 0 mm 0.0 W/m2 CLR
00:46 -10.4 °C -11.8 °C 34703.1 hPa Calm     84 % 0 mm 0.0 W/m2 CLR
00:51 -10.4 °C -11.8 °C 34703.1 hPa Calm     84 % 0 mm 0.0 W/m2 CLR
00:56 -10.4 °C -11.8 °C 34703.1 hPa Calm     84 % 0 mm 0.0 W/m2 CLR
01:01 -10.4 °C -11.7 °C 34703.1 hPa Calm     85 % 0 mm 0.0 W/m2 CLR
01:06 -10.4 °C -11.7 °C 34703.1 hPa Calm     85 % 0 mm 0.0 W/m2 CLR
01:16 -10.4 °C -11.7 °C 34703.1 hPa Calm     85 % 0 mm 0.0 W/m2 CLR
01:21 -10.4 °C -11.7 °C 34703.1 hPa Calm     85 % 0 mm 0.0 W/m2 CLR
01:26 -10.7 °C -12.1 °C 34716.7 hPa Calm     85 % 0 mm 0.0 W/m2 CLR
01:31 -10.7 °C -12.1 °C 34716.7 hPa Calm     85 % 0 mm 0.0 W/m2 CLR
01:36 -10.7 °C -11.9 °C 34716.7 hPa Calm     86 % 0 mm 0.0 W/m2 CLR
01:41 -10.7 °C -11.9 °C 34716.7 hPa Calm     86 % 0 mm 0.0 W/m2 CLR
01:46 -10.4 °C -11.6 °C 34703.1 hPa Calm     87 % 0 mm 0.0 W/m2 CLR
01:51 -10.7 °C -11.8 °C 34716.7 hPa Calm     87 % 0 mm 0.0 W/m2 CLR
01:56 -10.7 °C -11.8 °C 34716.7 hPa Calm     88 % 0 mm 0.0 W/m2 CLR
02:01 -10.7 °C -11.8 °C 34703.1 hPa Calm     87 % 0 mm 0.0 W/m2 CLR
02:06 -10.7 °C -11.8 °C 34703.1 hPa Calm     87 % 0 mm 0.0 W/m2 CLR
02:11 -10.7 °C -11.8 °C 34703.1 hPa Calm     87 % 0 mm 0.0 W/m2 CLR
02:16 -11 °C -12.2 °C 34703.1 hPa Calm     87 % 0 mm 0.0 W/m2 CLR
02:21 -11 °C -12.2 °C 34703.1 hPa Calm     87 % 0 mm 0.0 W/m2 CLR
02:26 -11 °C -12.1 °C 34703.1 hPa Calm     88 % 0 mm 0.0 W/m2 CLR
02:31 -11 °C -12.1 °C 34703.1 hPa Calm     88 % 0 mm 0.0 W/m2 CLR
02:36 -11 °C -12.1 °C 34703.1 hPa Calm     88 % 0 mm 0.0 W/m2 CLR
02:41 -11 °C -12.1 °C 34716.7 hPa Calm     88 % 0 mm 0.0 W/m2 CLR
02:46 -11 °C -12.1 °C 34703.1 hPa Calm     88 % 0 mm 0.0 W/m2 CLR
02:51 -11 °C -12.1 °C 34703.1 hPa Calm     88 % 0 mm 0.0 W/m2 CLR
02:56 -11 °C -12.1 °C 34703.1 hPa Calm     88 % 0 mm 0.0 W/m2 CLR
03:06 -11 °C -12.1 °C 34703.1 hPa Calm     88 % 0 mm 0.0 W/m2 CLR
03:11 -11 °C -12 °C 34703.1 hPa Calm     89 % 0 mm 0.0 W/m2 CLR
03:16 -11.3 °C -12.3 °C 34703.1 hPa Calm     89 % 0 mm 0.0 W/m2 CLR
03:21 -11.3 °C -12.3 °C 34693 hPa Calm     89 % 0 mm 0.0 W/m2 CLR
03:26 -11.3 °C -12.3 °C 34693 hPa Calm     89 % 0 mm 0.0 W/m2 CLR
03:32 -11.3 °C -12.3 °C 34693 hPa Calm     89 % 0 mm 0.0 W/m2 CLR
03:37 -11.3 °C -12.3 °C 34693 hPa Calm     89 % 0 mm 0.0 W/m2 CLR
03:42 -11.6 °C -12.6 °C 34693 hPa Calm     89 % 0 mm 0.0 W/m2 CLR
03:47 -11.6 °C -12.6 °C 34693 hPa Calm     89 % 0 mm 0.0 W/m2 CLR
03:52 -11.6 °C -12.6 °C 34693 hPa Calm     89 % 0 mm 0.0 W/m2 CLR
03:57 -11.6 °C -12.6 °C 34693 hPa Calm     89 % 0 mm 0.0 W/m2 CLR
04:02 -11.6 °C -12.6 °C 34682.8 hPa Calm     89 % 0 mm 0.0 W/m2 CLR
04:07 -11.6 °C -12.6 °C 34682.8 hPa Calm     89 % 0 mm 0.0 W/m2 CLR
04:12 -11.6 °C -12.6 °C 34682.8 hPa Calm     89 % 0 mm 0.0 W/m2 CLR
04:13 -11.6 °C -12.6 °C 34682.8 hPa Calm     89 % 0 mm 0.0 W/m2 CLR
04:18 -11.6 °C -12.6 °C 34682.8 hPa Calm     89 % 0 mm 0.0 W/m2 CLR
04:23 -11.6 °C -12.6 °C 34682.8 hPa Calm     89 % 0 mm 0.0 W/m2 CLR
04:28 -11.6 °C -12.4 °C 34682.8 hPa Calm     90 % 0 mm 0.0 W/m2 CLR
04:33 -11.6 °C -12.4 °C 34682.8 hPa Calm     90 % 0 mm 0.0 W/m2 CLR
04:38 -11.6 °C -12.4 °C 34682.8 hPa Calm     90 % 0 mm 0.0 W/m2 CLR
04:43 -11.9 °C -12.8 °C 34682.8 hPa Calm     90 % 0 mm 0.0 W/m2 CLR
04:48 -11.9 °C -12.8 °C 34682.8 hPa Calm     90 % 0 mm 0.0 W/m2 CLR
04:53 -11.9 °C -12.8 °C 34682.8 hPa Calm     90 % 0 mm 0.0 W/m2 CLR
04:58 -11.9 °C -12.8 °C 34669.3 hPa Calm     90 % 0 mm 0.0 W/m2 CLR
05:03 -11.9 °C -12.8 °C 34669.3 hPa Calm     90 % 0 mm 0.0 W/m2 CLR
05:08 -11.9 °C -12.7 °C 34669.3 hPa Calm     91 % 0 mm 0.0 W/m2 CLR
05:13 -11.9 °C -12.7 °C 34669.3 hPa Calm     91 % 0 mm 0.0 W/m2 CLR
05:18 -11.9 °C -12.7 °C 34669.3 hPa Calm     91 % 0 mm 0.0 W/m2 CLR
05:21 -11.9 °C -12.7 °C 34669.3 hPa Calm     91 % 0 mm 0.0 W/m2 CLR
05:23 -11.9 °C -12.7 °C 34669.3 hPa Calm     91 % 0 mm 0.0 W/m2 CLR
05:26 -11.9 °C -12.7 °C 34669.3 hPa Calm     91 % 0 mm 0.0 W/m2 CLR
05:31 -11.9 °C -12.7 °C 34669.3 hPa Calm     91 % 0 mm 0.0 W/m2 CLR
05:36 -11.9 °C -12.7 °C 34669.3 hPa Calm     91 % 0 mm 0.0 W/m2 CLR
05:46 -11.9 °C -12.7 °C 34669.3 hPa Calm     91 % 0 mm 0.0 W/m2 CLR
05:51 -11.9 °C -12.7 °C 34669.3 hPa Calm     91 % 0 mm 0.0 W/m2 CLR
05:56 -11.9 °C -12.7 °C 34669.3 hPa Calm     91 % 0 mm 0.0 W/m2 CLR
06:01 -12.2 °C -13 °C 34669.3 hPa Calm     91 % 0 mm 0.0 W/m2 CLR
06:06 -11.9 °C -12.7 °C 34669.3 hPa Calm     91 % 0 mm 0.0 W/m2 CLR
06:11 -11.9 °C -12.7 °C 34682.8 hPa Calm     91 % 0 mm 0.0 W/m2 CLR
06:16 -11.9 °C -12.7 °C 34682.8 hPa Calm     91 % 0 mm 0.0 W/m2 CLR
06:21 -11.9 °C -12.7 °C 34682.8 hPa Calm     91 % 0 mm 0.0 W/m2 CLR
06:31 -11.9 °C -12.7 °C 34682.8 hPa Calm     91 % 0 mm 0.0 W/m2 CLR
06:36 -12.2 °C -13 °C 34682.8 hPa Calm     91 % 0 mm 0.0 W/m2 CLR
06:41 -12.2 °C -13 °C 34682.8 hPa Calm     91 % 0 mm 0.0 W/m2 CLR
06:46 -12.2 °C -13 °C 34682.8 hPa Calm     91 % 0 mm 0.0 W/m2 CLR
06:56 -12.2 °C -13 °C 34682.8 hPa Calm     91 % 0 mm 0.0 W/m2 CLR
07:06 -12.2 °C -13 °C 34682.8 hPa Calm     91 % 0 mm 0.0 W/m2 CLR
07:11 -12.6 °C -13.3 °C 34693 hPa Calm     91 % 0 mm 0.0 W/m2 CLR
07:16 -12.6 °C -13.3 °C 34682.8 hPa Calm     91 % 0 mm 0.0 W/m2 CLR
07:21 -12.6 °C -13.3 °C 34682.8 hPa Calm     91 % 0 mm 0.0 W/m2 CLR
07:26 -12.6 °C -13.3 °C 34682.8 hPa Calm     91 % 0 mm 0.0 W/m2 CLR
07:31 -12.6 °C -13.3 °C 34693 hPa Calm     91 % 0 mm 0.0 W/m2 CLR
07:36 -12.6 °C -13.3 °C 34682.8 hPa Calm     91 % 0 mm 0.0 W/m2 CLR
07:41 -12.6 °C -13.3 °C 34693 hPa Calm     91 % 0 mm 0.0 W/m2 CLR
07:46 -12.6 °C -13.2 °C 34693 hPa Calm     92 % 0 mm 0.0 W/m2 CLR
07:51 -12.6 °C -13.2 °C 34682.8 hPa Calm     92 % 0 mm 0.0 W/m2 CLR
07:56 -12.6 °C -13.2 °C 34682.8 hPa Calm     92 % 0 mm 0.0 W/m2 CLR
08:01 -12.6 °C -13.2 °C 34682.8 hPa Calm     92 % 0 mm 5.0 W/m2 OVC
08:06 -12.6 °C -13.2 °C 34682.8 hPa Calm     92 % 0 mm 7.0 W/m2 BKN
08:11 -12.6 °C -13.2 °C 34682.8 hPa Calm     92 % 0 mm 11.0 W/m2 BKN
08:16 -12.6 °C -13.2 °C 34682.8 hPa Calm     92 % 0 mm 12.0 W/m2 BKN
08:21 -12.6 °C -13.3 °C 34682.8 hPa Calm     91 % 0 mm 18.0 W/m2 BKN
08:26 -12.6 °C -13.2 °C 34693 hPa Calm     92 % 0 mm 21.0 W/m2 BKN
08:31 -12.2 °C -12.9 °C 34693 hPa Calm     92 % 0 mm 23.0 W/m2 BKN
08:36 -12.2 °C -12.9 °C 34693 hPa Calm     92 % 0 mm 32.0 W/m2 BKN
08:41 -12.2 °C -12.9 °C 34693 hPa Calm     92 % 0 mm 35.0 W/m2 BKN
08:46 -11.9 °C -12.6 °C 34693 hPa Calm     92 % 0 mm 40.0 W/m2 BKN
08:51 -11.9 °C -12.7 °C 34693 hPa Calm     91 % 0 mm 60.0 W/m2 SCT
08:56 -11.9 °C -12.7 °C 34693 hPa Calm     91 % 0 mm 46.0 W/m2 SCT
09:01 -11.6 °C -12.4 °C 34693 hPa Calm     91 % 0 mm 58.0 W/m2 SCT
09:06 -11.6 °C -12.4 °C 34693 hPa Calm     91 % 0 mm 104.0 W/m2 SCT
09:11 -11.6 °C -12.4 °C 34693 hPa Calm     91 % 0 mm 121.0 W/m2 FEW
09:16 -11.3 °C -12.1 °C 34693 hPa Calm     91 % 0 mm 104.0 W/m2 CLR
09:21 -11.3 °C -12 °C 34693 hPa Calm     92 % 0 mm 148.0 W/m2 CLR
09:26 -11.3 °C -12.1 °C 34693 hPa Calm     91 % 0 mm 185.0 W/m2 CLR
09:31 -11 °C -11.9 °C 34693 hPa Calm     90 % 0 mm 200.0 W/m2 CLR
09:36 -11 °C -12 °C 34693 hPa Calm     89 % 0 mm 195.0 W/m2 CLR
09:41 -10.7 °C -11.8 °C 34693 hPa Calm     88 % 0 mm 211.0 W/m2 CLR
09:46 -10.7 °C -12.1 °C 34682.8 hPa Calm     85 % 0 mm 229.0 W/m2 CLR
09:51 -10.7 °C -12.1 °C 34682.8 hPa Calm     84 % 0 mm 255.0 W/m2 CLR
09:56 -10.4 °C -11.8 °C 34693 hPa Calm     84 % 0 mm 276.0 W/m2 CLR
10:01 -10.1 °C -11.7 °C 34693 hPa Calm     82 % 0 mm 281.0 W/m2 CLR
10:06 -10.1 °C -11.8 °C 34693 hPa Calm     81 % 0 mm 299.0 W/m2 CLR
10:11 -9.8 °C -11.6 °C 34693 hPa Calm     81 % 0 mm 325.0 W/m2 CLR
10:16 -9.8 °C -11.6 °C 34693 hPa Calm     80 % 0 mm 339.0 W/m2 CLR
10:21 -9.4 °C -11.4 °C 34693 hPa Calm     79 % 0 mm 350.0 W/m2 CLR
10:26 -9.1 °C -11.3 °C 34693 hPa Calm     78 % 0 mm 367.0 W/m2 CLR
10:31 -8.5 °C -10.8 °C 34693 hPa Calm     77 % 0 mm 385.0 W/m2 CLR
10:36 -8.2 °C -10.7 °C 34682.8 hPa Calm     75 % 0 mm 401.0 W/m2 CLR
10:46 -7.6 °C -10.3 °C 34693 hPa Calm     73 % 0 mm 425.0 W/m2 CLR
10:51 -7.6 °C -10.2 °C 34693 hPa Calm     74 % 0 mm 438.0 W/m2 CLR
10:56 -7.3 °C -10.2 °C 34682.8 hPa Calm     72 % 0 mm 452.0 W/m2 CLR
11:02 -7.3 °C -10.2 °C 34682.8 hPa Calm     72 % 0 mm 461.0 W/m2 CLR
11:07 -7 °C -10.1 °C 34682.8 hPa Calm     70 % 0 mm 475.0 W/m2 CLR
11:12 -7 °C -10.3 °C 34682.8 hPa Calm     68 % 0 mm 487.0 W/m2 CLR
11:17 -6.7 °C -10.2 °C 34682.8 hPa Calm     67 % 0 mm 499.0 W/m2 CLR
11:22 -6.7 °C -10.3 °C 34682.8 hPa Calm     66 % 0 mm 510.0 W/m2 CLR
11:27 -6.3 °C -10 °C 34682.8 hPa Calm     66 % 0 mm 520.0 W/m2 CLR
11:32 -6.1 °C -10.1 °C 34682.8 hPa Calm     63 % 0 mm 533.0 W/m2 CLR
11:37 -5.7 °C -9.8 °C 34682.8 hPa Calm     63 % 0 mm 545.0 W/m2 CLR
11:42 -5.7 °C -9.8 °C 34682.8 hPa Calm     63 % 0 mm 554.0 W/m2 CLR
11:47 -5.7 °C -9.9 °C 34682.8 hPa NNW 11.9 km/h 11.9 km/h 62 % 0 mm 564.0 W/m2 CLR
11:52 -5.4 °C -9.7 °C 34682.8 hPa NNW 3.1 km/h 3.1 km/h 62 % 0 mm 573.0 W/m2 CLR
11:57 -5.4 °C -9.7 °C 34682.8 hPa Calm     62 % 0 mm 580.0 W/m2 CLR
12:02 -5.1 °C -9.5 °C 34682.8 hPa Calm     61 % 0 mm 591.0 W/m2 CLR
12:12 -4.8 °C -9.4 °C 34669.3 hPa NNW 20.9 km/h 20.9 km/h 60 % 0 mm 605.0 W/m2 CLR
12:17 -4.5 °C -9.2 °C 34669.3 hPa West 17.9 km/h 17.9 km/h 59 % 0 mm 612.0 W/m2 CLR
12:22 -4.5 °C -9.4 °C 34669.3 hPa South 11.9 km/h 11.9 km/h 58 % 0 mm 619.0 W/m2 CLR
12:27 -4.2 °C -9.1 °C 34669.3 hPa Calm     58 % 0 mm 624.0 W/m2 CLR
12:32 -4.2 °C -9.1 °C 34669.3 hPa WNW 9 km/h 9 km/h 58 % 0 mm 628.0 W/m2 CLR
12:37 -4.2 °C -9.4 °C 34669.3 hPa South 15 km/h 15 km/h 56 % 0 mm 638.0 W/m2 CLR
12:42 -4.2 °C -9.2 °C 34669.3 hPa West 20.8 km/h 20.8 km/h 57 % 0 mm 643.0 W/m2 CLR
12:47 -4.2 °C -9.4 °C 34669.3 hPa West 10.3 km/h 10.3 km/h 56 % 0 mm 649.0 W/m2 CLR
12:52 -3.9 °C -9.1 °C 34669.3 hPa Calm     56 % 0 mm 652.0 W/m2 CLR
12:57 -3.6 °C -8.8 °C 34669.3 hPa Calm     56 % 0 mm 657.0 W/m2 CLR
13:02 -3.6 °C -8.8 °C 34659.1 hPa Calm     56 % 0 mm 664.0 W/m2 CLR
13:07 -3.6 °C -9 °C 34659.1 hPa West 11.9 km/h 11.9 km/h 55 % 0 mm 666.0 W/m2 CLR
13:12 -3.6 °C -8.8 °C 34659.1 hPa Calm     56 % 0 mm 671.0 W/m2 CLR
13:17 -3.6 °C -9 °C 34659.1 hPa West 18.2 km/h 18.2 km/h 55 % 0 mm 673.0 W/m2 CLR
13:22 -3.6 °C -9.1 °C 34659.1 hPa West 17.9 km/h 17.9 km/h 54 % 0 mm 675.0 W/m2 CLR
13:27 -3.6 °C -9.1 °C 34645.6 hPa NW 11.9 km/h 11.9 km/h 54 % 0 mm 675.0 W/m2 CLR
13:32 -3.6 °C -9.3 °C 34645.6 hPa West 15 km/h 15 km/h 53 % 0 mm 679.0 W/m2 CLR
13:37 -3.6 °C -9.3 °C 34645.6 hPa West 15 km/h 15 km/h 53 % 0 mm 680.0 W/m2 CLR
13:42 -3.3 °C -9 °C 34645.6 hPa West 26.9 km/h 26.9 km/h 53 % 0 mm 679.0 W/m2 CLR
13:47 -3.6 °C -9.6 °C 34635.4 hPa WSW 23.8 km/h 23.8 km/h 51 % 0 mm 682.0 W/m2 CLR
13:52 -3.3 °C -9.2 °C 34635.4 hPa WNW 11.9 km/h 11.9 km/h 52 % 0 mm 682.0 W/m2 CLR
13:57 -2.9 °C -8.9 °C 34635.4 hPa West 29.8 km/h 29.8 km/h 52 % 0 mm 682.0 W/m2 CLR
14:02 -3.3 °C -9.2 °C 34625.2 hPa NW 26.9 km/h 26.9 km/h 52 % 0 mm 682.0 W/m2 CLR
14:07 -3.3 °C -9.5 °C 34625.2 hPa WSW 23.3 km/h 23.3 km/h 50 % 0 mm 682.0 W/m2 CLR
14:12 -3.3 °C -9.7 °C 34625.2 hPa West 29.8 km/h 29.8 km/h 49 % 0 mm 680.0 W/m2 CLR
14:17 -2.9 °C -9.4 °C 34625.2 hPa West 23.8 km/h 23.8 km/h 49 % 0 mm 677.0 W/m2 CLR
14:22 -2.7 °C -9.1 °C 34611.7 hPa SW 20.9 km/h 20.9 km/h 49 % 0 mm 675.0 W/m2 CLR
14:27 -2.7 °C -9.1 °C 34611.7 hPa WNW 17.9 km/h 17.9 km/h 49 % 0 mm 671.0 W/m2 CLR
14:32 -2.9 °C -9.4 °C 34611.7 hPa WSW 20.9 km/h 20.9 km/h 49 % 0 mm 668.0 W/m2 CLR
14:37 -2.9 °C -9.4 °C 34611.7 hPa West 23.8 km/h 23.8 km/h 49 % 0 mm 663.0 W/m2 CLR
14:42 -2.9 °C -9.6 °C 34601.5 hPa WNW 26.9 km/h 26.9 km/h 48 % 0 mm 659.0 W/m2 CLR
14:47 -2.9 °C -9.6 °C 34601.5 hPa West 15.6 km/h 15.6 km/h 48 % 0 mm 656.0 W/m2 CLR
14:57 -2.7 °C -9.5 °C 34601.5 hPa SW 17.9 km/h 17.9 km/h 47 % 0 mm 645.0 W/m2 CLR
15:02 -2.9 °C -9.9 °C 34591.4 hPa WNW 26.9 km/h 26.9 km/h 46 % 0 mm 638.0 W/m2 CLR
15:07 -2.9 °C -9.8 °C 34591.4 hPa WNW 12.9 km/h 12.9 km/h 47 % 0 mm 635.0 W/m2 CLR
15:12 -2.7 °C -9.8 °C 34591.4 hPa WNW 38.8 km/h 38.8 km/h 45 % 0 mm 628.0 W/m2 CLR
15:18 -2.7 °C -9.8 °C 34591.4 hPa West 3.1 km/h   45 % 0 mm 621.0 W/m2 CLR
15:23 -2.7 °C -9.8 °C 34591.4 hPa West 26.9 km/h 26.9 km/h 45 % 0 mm 619.0 W/m2 CLR
15:28 -2.7 °C -9.8 °C 34577.8 hPa WNW 17.9 km/h 17.9 km/h 45 % 0 mm 613.0 W/m2 CLR
15:33 -2.7 °C -10.1 °C 34577.8 hPa NNW 6 km/h   44 % 0 mm 605.0 W/m2 CLR
15:38 -2.7 °C -10.1 °C 34577.8 hPa SSW 20.9 km/h 20.9 km/h 44 % 0 mm 594.0 W/m2 CLR
15:43 -2.3 °C -9.8 °C 34577.8 hPa Calm     44 % 0 mm 589.0 W/m2 CLR
15:48 -2.3 °C -9.9 °C 34567.7 hPa West 20.8 km/h 20.8 km/h 43 % 0 mm 582.0 W/m2 CLR
15:53 -2.1 °C -9.7 °C 34577.8 hPa West 2.6 km/h 2.6 km/h 43 % 0 mm 568.0 W/m2 CLR
15:58 -2.1 °C -9.7 °C 34567.7 hPa West 20.9 km/h 20.9 km/h 43 % 0 mm 561.0 W/m2 CLR
16:03 -2.3 °C -10.2 °C 34567.7 hPa WNW 18.2 km/h 18.2 km/h 42 % 0 mm 548.0 W/m2 CLR
16:08 -2.3 °C -10.2 °C 34567.7 hPa WSW 26.9 km/h 26.9 km/h 42 % 0 mm 540.0 W/m2 CLR
16:13 -2.1 °C -10.1 °C 34567.7 hPa SW 23.8 km/h 23.8 km/h 41 % 0 mm 529.0 W/m2 CLR
16:18 -1.7 °C -9.6 °C 34567.7 hPa WSW 23.3 km/h 23.3 km/h 42 % 0 mm 515.0 W/m2 CLR
16:23 -2.1 °C -9.9 °C 34554.1 hPa Calm     42 % 0 mm 501.0 W/m2 CLR
16:28 -2.1 °C -10.1 °C 34554.1 hPa SW 10.3 km/h 10.3 km/h 41 % 0 mm 490.0 W/m2 CLR
16:33 -2.1 °C -10.1 °C 34554.1 hPa WSW 11.9 km/h 11.9 km/h 41 % 0 mm 480.0 W/m2 CLR
16:38 -2.1 °C -10.1 °C 34554.1 hPa West 20.9 km/h 20.9 km/h 41 % 0 mm 464.0 W/m2 CLR
16:48 -2.3 °C -10.4 °C 34554.1 hPa West 20.8 km/h 20.8 km/h 41 % 0 mm 443.0 W/m2 CLR
16:53 -2.3 °C -10.2 °C 34554.1 hPa WSW 23.3 km/h 23.3 km/h 42 % 0 mm 427.0 W/m2 CLR
16:58 -2.1 °C -9.9 °C 34554.1 hPa SSW 10.3 km/h 10.3 km/h 42 % 0 mm 417.0 W/m2 CLR
17:03 -2.1 °C -9.9 °C 34544 hPa WSW 26.9 km/h 26.9 km/h 42 % 0 mm 401.0 W/m2 CLR
17:08 -2.3 °C -10.6 °C 34544 hPa WSW 17.9 km/h 17.9 km/h 40 % 0 mm 387.0 W/m2 CLR
17:13 -2.3 °C -10.4 °C 34544 hPa WSW 17.9 km/h 17.9 km/h 41 % 0 mm 374.0 W/m2 CLR
17:18 -2.3 °C -10.6 °C 34544 hPa WSW 25.9 km/h 25.9 km/h 40 % 0 mm 359.0 W/m2 CLR
17:23 -2.3 °C -10.6 °C 34544 hPa West 15 km/h 15 km/h 40 % 0 mm 343.0 W/m2 CLR
17:28 -2.3 °C -10.8 °C 34544 hPa West 26.9 km/h 26.9 km/h 39 % 0 mm 330.0 W/m2 CLR
17:33 -2.1 °C -10.7 °C 34544 hPa West 15 km/h 15 km/h 38 % 0 mm 316.0 W/m2 CLR
17:38 -2.1 °C -10.7 °C 34544 hPa West 15.6 km/h 15.6 km/h 38 % 0 mm 302.0 W/m2 CLR
17:43 -2.3 °C -11 °C 34544 hPa West 23.8 km/h 23.8 km/h 38 % 0 mm 292.0 W/m2 CLR
17:53 -2.3 °C -11.5 °C 34533.8 hPa WSW 29.8 km/h 29.8 km/h 36 % 0 mm 257.0 W/m2 CLR
17:58 -2.7 °C -11.5 °C 34533.8 hPa West 23.8 km/h 23.8 km/h 37 % 0 mm 239.0 W/m2 CLR
18:03 -2.7 °C -11.3 °C 34533.8 hPa Calm     38 % 0 mm 223.0 W/m2 CLR
18:08 -2.7 °C -11.5 °C 34533.8 hPa Calm     37 % 0 mm 200.0 W/m2 CLR
18:13 -2.9 °C -11.8 °C 34533.8 hPa SW 9 km/h   37 % 0 mm 185.0 W/m2 CLR
18:18 -2.9 °C -12.1 °C 34533.8 hPa WSW 18.2 km/h 18.2 km/h 36 % 0 mm 167.0 W/m2 CLR
18:23 -2.9 °C -12.1 °C 34533.8 hPa SW 15 km/h 15 km/h 36 % 0 mm 151.0 W/m2 CLR
18:28 -2.9 °C -12.1 °C 34533.8 hPa West 15 km/h 15 km/h 36 % 0 mm 134.0 W/m2 CLR
18:33 -2.9 °C -12.3 °C 34533.8 hPa WSW 32.8 km/h 32.8 km/h 35 % 0 mm 114.0 W/m2 CLR
18:38 -2.9 °C -12.1 °C 34533.8 hPa WSW 23.8 km/h 23.8 km/h 36 % 0 mm 97.0 W/m2 CLR
18:43 -2.9 °C -12.1 °C 34533.8 hPa Calm     36 % 0 mm 83.0 W/m2 CLR
18:49 -3.3 °C -12.3 °C 34533.8 hPa WSW 20.8 km/h 20.8 km/h 36 % 0 mm 62.0 W/m2 SCT
18:54 -3.6 °C -12.6 °C 34533.8 hPa WSW 15 km/h   36 % 0 mm 53.0 W/m2 SCT
18:59 -3.9 °C -12.8 °C 34533.8 hPa West 26.9 km/h 26.9 km/h 36 % 0 mm 42.0 W/m2 SCT
19:04 -4.2 °C -13.1 °C 34533.8 hPa WSW 18.2 km/h 18.2 km/h 36 % 0 mm 32.0 W/m2 BKN
19:09 -4.2 °C -13.1 °C 34533.8 hPa SW 26.9 km/h 26.9 km/h 36 % 0 mm 23.0 W/m2 BKN
19:14 -4.2 °C -13.1 °C 34533.8 hPa WSW 9 km/h 9 km/h 36 % 0 mm 16.0 W/m2 BKN
19:19 -4.5 °C -13.2 °C 34533.8 hPa WSW 9 km/h 9 km/h 37 % 0 mm 12.0 W/m2 BKN
19:24 -4.5 °C -12.9 °C 34544 hPa WSW 15 km/h 15 km/h 38 % 0 mm 11.0 W/m2 BKN
19:29 -4.8 °C -13 °C 34544 hPa Calm     39 % 0 mm 7.0 W/m2 BKN
19:34 -5.4 °C -13.6 °C 34544 hPa Calm     39 % 0 mm 5.0 W/m2 OVC
19:44 -6.3 °C -14 °C 34533.8 hPa Calm     41 % 0 mm 0.0 W/m2 OVC
19:49 -6.3 °C -13.8 °C 34533.8 hPa Calm     42 % 0 mm 0.0 W/m2 CLR
19:54 -6.7 °C -13.8 °C 34533.8 hPa Calm     43 % 0 mm 0.0 W/m2 CLR
19:59 -6.7 °C -13.7 °C 34544 hPa Calm     44 % 0 mm 0.0 W/m2 CLR
20:04 -6.7 °C -13.7 °C 34544 hPa Calm     44 % 0 mm 0.0 W/m2 CLR
20:09 -6.7 °C -13.7 °C 34533.8 hPa Calm     44 % 0 mm 0.0 W/m2 CLR
20:14 -6.7 °C -13.5 °C 34544 hPa Calm   0.3 km/h 45 % 0 mm 0.0 W/m2 CLR
20:19 -6.7 °C -13.5 °C 34544 hPa Calm     45 % 0 mm 0.0 W/m2 CLR
20:24 -6.7 °C -13.5 °C 34544 hPa Calm     45 % 0 mm 0.0 W/m2 CLR
20:29 -6.7 °C -13.5 °C 34544 hPa Calm     45 % 0 mm 0.0 W/m2 CLR
20:34 -6.7 °C -13.3 °C 34544 hPa Calm     46 % 0 mm 0.0 W/m2 CLR
20:39 -6.7 °C -13.2 °C 34544 hPa Calm     47 % 0 mm 0.0 W/m2 CLR
20:44 -7 °C -13.2 °C 34544 hPa Calm     48 % 0 mm 0.0 W/m2 CLR
20:49 -7 °C -13.1 °C 34554.1 hPa Calm     49 % 0 mm 0.0 W/m2 CLR
20:54 -7 °C -13.1 °C 34554.1 hPa SSW 9 km/h 9 km/h 49 % 0 mm 0.0 W/m2 CLR
20:59 -7 °C -13.1 °C 34554.1 hPa SSW 2.6 km/h 2.6 km/h 49 % 0 mm 0.0 W/m2 CLR
21:04 -7 °C -12.6 °C 34554.1 hPa Calm     52 % 0 mm 0.0 W/m2 CLR
21:14 -7.3 °C -12.7 °C 34567.7 hPa SW 23.8 km/h 23.8 km/h 53 % 0 mm 0.0 W/m2 CLR
21:24 -7.3 °C -12.7 °C 34567.7 hPa WSW 23.8 km/h 23.8 km/h 53 % 0 mm 0.0 W/m2 CLR
21:29 -7.3 °C -12.6 °C 34567.7 hPa WSW 41.7 km/h 41.7 km/h 54 % 0 mm 0.0 W/m2 CLR
21:34 -6.7 °C -12 °C 34567.7 hPa WSW 35.7 km/h 35.7 km/h 54 % 0 mm 0.0 W/m2 CLR
21:39 -5.7 °C -11.2 °C 34567.7 hPa SW 44.7 km/h 44.7 km/h 54 % 0 mm 0.0 W/m2 CLR
21:44 -5.4 °C -10.7 °C 34567.7 hPa SW 35.7 km/h 35.7 km/h 55 % 0 mm 0.0 W/m2 CLR
21:49 -5.4 °C -10.7 °C 34577.8 hPa SW 29.8 km/h 29.8 km/h 55 % 0 mm 0.0 W/m2 CLR
21:54 -5.4 °C -10.6 °C 34577.8 hPa SW 29.8 km/h 29.8 km/h 56 % 0 mm 0.0 W/m2 CLR
21:59 -5.4 °C -10.4 °C 34577.8 hPa SW 41.7 km/h 41.7 km/h 57 % 0 mm 0.0 W/m2 CLR
22:04 -5.4 °C -10.2 °C 34577.8 hPa WSW 53.6 km/h 53.6 km/h 58 % 0 mm 0.0 W/m2 CLR
22:09 -5.4 °C -10.2 °C 34577.8 hPa WSW 68.6 km/h 68.6 km/h 58 % 0 mm 0.0 W/m2 CLR
22:14 -5.4 °C -10.2 °C 34577.8 hPa WSW 53.6 km/h 53.6 km/h 58 % 0 mm 0.0 W/m2 CLR
22:19 -5.4 °C -10.2 °C 34577.8 hPa SW 50.7 km/h 50.7 km/h 58 % 0 mm 0.0 W/m2 CLR
22:29 -5.4 °C -10.2 °C 34577.8 hPa SW 47.6 km/h 47.6 km/h 58 % 0 mm 0.0 W/m2 CLR
22:39 -5.7 °C -10.5 °C 34591.4 hPa WSW 41.7 km/h 41.7 km/h 58 % 0 mm 0.0 W/m2 CLR
22:44 -5.7 °C -10.4 °C 34591.4 hPa WSW 35.7 km/h 35.7 km/h 59 % 0 mm 0.0 W/m2 CLR
22:49 -6.1 °C -10.7 °C 34591.4 hPa SW 50.7 km/h 50.7 km/h 59 % 0 mm 0.0 W/m2 CLR
22:54 -6.1 °C -10.5 °C 34591.4 hPa SW 44.7 km/h 44.7 km/h 60 % 0 mm 0.0 W/m2 CLR
22:59 -6.1 °C -10.4 °C 34591.4 hPa SW 44.7 km/h 44.7 km/h 61 % 0 mm 0.0 W/m2 CLR
23:04 -6.1 °C -10.4 °C 34591.4 hPa SSW 35.7 km/h 35.7 km/h 61 % 0 mm 0.0 W/m2 CLR
23:09 -6.1 °C -10.4 °C 34591.4 hPa SSW 32.8 km/h 32.8 km/h 61 % 0 mm 0.0 W/m2 CLR
23:14 -6.1 °C -10.5 °C 34591.4 hPa SSW 38.8 km/h 38.8 km/h 60 % 0 mm 0.0 W/m2 CLR
23:19 -6.1 °C -10.5 °C 34591.4 hPa SSW 47.6 km/h 47.6 km/h 60 % 0 mm 0.0 W/m2 CLR
23:24 -6.3 °C -10.8 °C 34601.5 hPa SSW 32.8 km/h 32.8 km/h 60 % 0 mm 0.0 W/m2 CLR
23:29 -6.3 °C -10.8 °C 34601.5 hPa SSW 47.6 km/h 47.6 km/h 60 % 0 mm 0.0 W/m2 CLR
23:39 -6.3 °C -10.8 °C 34591.4 hPa SSW 44.7 km/h 44.7 km/h 60 % 0 mm 0.0 W/m2 CLR
23:44 -6.3 °C -10.7 °C 34591.4 hPa SSW 44.7 km/h 44.7 km/h 61 % 0 mm 0.0 W/m2 CLR
23:49 -6.7 °C -11 °C 34591.4 hPa SSW 50.7 km/h 50.7 km/h 61 % 0 mm 0.0 W/m2 CLR
23:54 -6.7 °C -11 °C 34591.4 hPa SSW 44.7 km/h 44.7 km/h 61 % 0 mm 0.0 W/m2 CLR
23:55 -6.7 °C -11 °C 34591.4 hPa SSW 44.7 km/h 44.7 km/h 61 % 0 mm 0.0 W/m2 CLR
Lo Temps de Massalio
Compliments of Weather Underground - 1.25 mb